Home > Weather > Richmond > Past weeks

Flag for USA Past Weather in Richmond, Virginia, USA — Yesterday and Last 2 Weeks

Now
77 °F

Partly sunny.


Feels Like: 79 °F
Forecast: 61 / 85 °F
Wind: 7 mph from East

Location: Richmond International Airport

Current Time: Jun 26, 2016 at 11:28:00 AM

Latest Report: Jun 26, 2016 at 10:54 AM


Visibility: 10 mi

Pressure: 30.24 "Hg

Humidity: 60%

Dew Point: 62 °F

Location of RichmondLocation

Past Weather in Richmond — Graph

°F

Richmond Temperature Yesterday

Maximum temperature yesterday: 81 °F (at 4:54 PM)
Minimum temperature yesterday: 68 °F (at 11:54 PM)
Average temperature yesterday: 74 °F

High & Low Weather Summary for the Past Weeks

 TemperatureHumidityPressure
High93 °F (Jun 11, 4:54 PM)100% (Jun 25, 2:54 AM)30.39 "Hg (Jun 25, 2:54 AM)
Low55 °F (Jun 19, 5:54 AM)24% (Jun 12, 8:54 PM)29.65 "Hg (Jun 16, 8:54 PM)
Average75 °F67%30.00 "Hg
* Reported Jun 11 9:54 AM — Jun 26 9:54 AM, Richmond, Weather by CustomWeather, © 2016

Note: Actual official high and low records may vary slightly from our data, if they occured in-between our weather recording intervals... More about our weather records

Advertising

Richmond Weather History for the Previous 24 Hours

Scroll right to see more
 ConditionsComfort  
Time TempWeatherWind HumidityBarometerVisibility
9:54 AM
Sun, Jun 26
74 °FPartly sunny.No wind64%30.24 "Hg10 mi
8:54 AM72 °FPartly sunny.3 mph81%30.22 "Hg10 mi
7:54 AM67 °FFog.No wind93%30.23 "Hg6 mi
6:54 AM63 °FFog.3 mph93%30.23 "Hg6 mi
5:54 AM64 °FFog.No wind94%30.23 "Hg4 mi
4:54 AM64 °FClear.No wind94%30.23 "Hg7 mi
3:54 AM64 °FFog.No wind94%30.23 "Hg6 mi
2:54 AM64 °FClear.No wind94%30.22 "Hg7 mi
1:54 AM64 °FClear.No wind97%30.20 "Hg7 mi
12:54 AM67 °FClear.No wind93%30.20 "Hg8 mi
11:54 PM
Sat, Jun 25
68 °FClear.5 mph90%30.21 "Hg10 mi
10:54 PM69 °FClear.6 mph90%30.22 "Hg10 mi
9:54 PM71 °FClear.6 mph81%30.20 "Hg10 mi
8:54 PM74 °FPassing clouds.5 mph74%30.17 "Hg10 mi
7:54 PM76 °FPassing clouds.5 mph69%30.18 "Hg10 mi
6:54 PM79 °FPassing clouds.6 mph60%30.17 "Hg10 mi
5:54 PM80 °FPassing clouds.5 mph60%30.16 "Hg10 mi
4:54 PM81 °FScattered clouds.7 mph58%30.16 "Hg10 mi
3:54 PM80 °FScattered clouds.7 mph62%30.17 "Hg10 mi
2:54 PM80 °FBroken clouds.8 mph64%30.16 "Hg10 mi
1:54 PM78 °FBroken clouds.9 mph69%30.16 "Hg10 mi
12:54 PM78 °FBroken clouds.8 mph66%30.16 "Hg10 mi
11:54 AM77 °FBroken clouds.10 mph71%30.17 "Hg10 mi
Weather by CustomWeather, © 2016

See weather overviewHow to use our weather pages